Ellensburg, WA

1:00 PM PDT on June 26, 2017 (GMT -0700)
Bowers

Weather History for KELN - July, 2013

Change the Weather History Date:

Monday, July 1, 2013

  Actual Average (KYKM) Record (KYKM)
Temperature  
Mean Temperature 81 °F -  
Max Temperature 102 °F 81 °F 106 °F (2013)
Min Temperature 62 °F 50 °F 37 °F (1955)
Cooling Degree Days 16    
Growing Degree Days 31 (Base 50)    
Moisture  
Dew Point 58 °F    
Average Humidity 49    
Maximum Humidity 75    
Minimum Humidity 22    
Precipitation  
Precipitation 0.00 in - - ()
Sea Level Pressure  
Sea Level Pressure 29.93 in    
Wind  
Wind Speed 5 mph (NW)    
Max Wind Speed 16 mph    
Max Gust Speed 18 mph    
Visibility 10 miles    
Events      
Averages and records for this station are not official NWS values.
T = Trace of Precipitation, MM = Missing Value Source: NWS Daily Summary

Daily Weather History Graph

Daily Weather History Graph

Search for Another Location

Airport or City:

Trip Planner

Search our weather history database for the weather conditions in past years. The results will help you decide how hot, cold, wet, or windy it might be!

Date:

Astronomy

Jul. 01, 2013 Rise Set
Actual Time 5:11 AM PDT 9:00 PM PDT
Civil Twilight 4:31 AM PDT 9:40 PM PDT
Nautical Twilight 3:37 AM PDT 10:33 PM PDT
Astronomical Twilight 2:18 AM PDT 11:52 PM PDT
Moon 12:59 AM PDT (7/1) 3:08 PM PDT (7/1)
Length of Visible Light 17h 08m
Length of Day
15h 49m
Waning Crescent, 34% of the Moon is Illuminated
Jul 1
Waning Crescent
Jul 8
New
Jul 15
First Quarter
Jul 22
Full
Jul 29
Last Quarter

Hourly Weather History & Observations

Time (PDT) Temp. Heat Index Dew Point Humidity Pressure Visibility Wind Dir Wind Speed Gust Speed Precip Events Conditions
12:53 AM 69.1 °F - 54.0 °F 58% 29.95 in 10.0 mi Calm Calm - N/A   Clear
1:53 AM 66.0 °F - 55.0 °F 68% 29.95 in 10.0 mi SE 4.6 mph - N/A   Clear
2:53 AM 66.0 °F - 54.0 °F 65% 29.95 in 10.0 mi East 3.5 mph - N/A   Clear
3:53 AM 63.0 °F - 54.0 °F 72% 29.96 in 10.0 mi Calm Calm - N/A   Clear
4:53 AM 62.1 °F - 54.0 °F 75% 29.96 in 10.0 mi ENE 3.5 mph - N/A   Clear
5:53 AM 63.0 °F - 54.0 °F 72% 29.97 in 10.0 mi Calm Calm - N/A   Clear
6:53 AM 70.0 °F - 55.9 °F 61% 29.98 in 10.0 mi ENE 3.5 mph - N/A   Clear
7:53 AM 69.1 °F - 57.9 °F 68% 29.97 in 10.0 mi West 4.6 mph - N/A   Clear
8:53 AM 73.9 °F - 60.1 °F 62% 29.98 in 10.0 mi East 3.5 mph - N/A   Clear
9:53 AM 75.0 °F - 61.0 °F 62% 29.97 in 10.0 mi NE 11.5 mph - N/A   Partly Cloudy
10:53 AM 73.0 °F - 60.1 °F 64% 29.94 in 10.0 mi West 4.6 mph - 0.00 in   Scattered Clouds
11:53 AM 82.9 °F 83.2 °F 60.1 °F 46% 29.95 in 10.0 mi NNW 3.5 mph - 0.00 in   Clear
12:53 PM 91.9 °F 91.5 °F 60.1 °F 34% 29.94 in 10.0 mi WNW 6.9 mph - 0.00 in   Clear
1:53 PM 95.0 °F 94.0 °F 57.9 °F 29% 29.93 in 10.0 mi WSW 5.8 mph - N/A   Clear
2:53 PM 99.0 °F 98.1 °F 57.9 °F 25% 29.91 in 10.0 mi WNW 5.8 mph - N/A   Clear
3:53 PM 100.0 °F 100.2 °F 59.0 °F 26% 29.90 in 10.0 mi West 8.1 mph - N/A   Clear
4:53 PM 100.0 °F 100.2 °F 59.0 °F 26% 29.90 in 10.0 mi West 6.9 mph - N/A   Clear
5:53 PM 100.9 °F 100.5 °F 57.9 °F 24% 29.88 in 10.0 mi West 4.6 mph - N/A   Clear
6:53 PM 100.9 °F 99.6 °F 55.0 °F 22% 29.86 in 10.0 mi Calm Calm - N/A   Clear
7:53 PM 91.0 °F 92.6 °F 64.0 °F 41% 29.88 in 10.0 mi NW 15.0 mph 18.4 mph N/A   Clear
8:53 PM 86.0 °F 85.4 °F 59.0 °F 40% 29.89 in 10.0 mi NNW 15.0 mph - N/A   Clear
9:53 PM 84.0 °F 83.3 °F 57.0 °F 40% 29.91 in 10.0 mi NNW 15.0 mph - N/A   Clear
10:53 PM 82.9 °F 82.4 °F 57.0 °F 41% 29.92 in 10.0 mi NW 16.1 mph - N/A   Clear
11:53 PM 81.0 °F 81.0 °F 57.0 °F 44% 29.93 in 10.0 mi NW 15.0 mph - N/A   Clear